Weather Roundup
Issued by NWS Springfield, MO

Home | Current Version | Previous Version | Text Only | Print | Product List | Glossary On
Versions: 1 2 3 4 5 6 7 8 9 10 11 12 13 14 15 16 17 18 19 20 21 22 23 24 25 26 27 28 29 30 31 32 33 34 35 36 37 38 39 40 41 42 43 44 45 46 47 48 49 50
000
NZUS99 KSGF 282207
HRRSGF

HOURLY WEATHER
NATIONAL WEATHER SERVICE SPRINGFIELD MO
500 PM CDT SAT MAY 28 2016

......SGF CWA......

CITY           SKY/WX    TMP DP  RH WIND       PRES   REMARKS
SPRINGFIELD    MOSUNNY   80  63  55 W9        29.96S
JOPLIN         SUNNY     79  64  60 S13       29.96S
WEST PLAINS    MOSUNNY   81  64  56 S10G21    30.00S
ROLLA          CLOUDY    79  66  64 S5        29.92F
BRANSON        MOSUNNY   84  66  54 S9        29.96F

......SURROUNDING SGF CWA......

CITY           SKY/WX    TMP DP  RH WIND       PRES   REMARKS
CHANUTE        MOSUNNY   79  60  52 SW9       29.94R
PARSONS        MOSUNNY   80  60  50 SW9       29.95S
COFFEYVILLE    MOSUNNY   79  60  52 VRB6      29.94R
EMPORIA        MOSUNNY   77  59  53 SW12      29.93S
GROVE OK       SUNNY     79  64  61 S7        29.98S
ROGERS AR        N/A     79  65  62 SW10      29.99S
SILOAM SPRINGS PTSUNNY   79  61  53 SW12      29.99S
HARRISON AR    SUNNY     82  64  54 S10       29.97S
NEAR YELLVILLE SUNNY    N/A N/A N/A SE6       29.93F

......KANSAS AND MISSOURI......

CITY           SKY/WX    TMP DP  RH WIND       PRES   REMARKS
KANSAS CTY INT PTSUNNY   76  59  55 W9G21     29.91S
DOWNTOWN KC    MOSUNNY   77  57  50 W9        29.90R
COLUMBIA       CLOUDY    81  62  52 SW18G24   29.92R
SEDALIA        SUNNY     80  61  52 SW13G22   29.93R
ST JOSEPH      PTSUNNY   77  60  55 SW13      29.89R
ST LOUIS       PTSUNNY   85  66  53 S14G23    29.92S
SPIRIT OF STL  PTSUNNY   84  68  58 S9        29.90S
KIRKSVILLE     LGT RAIN  75  59  57 SW15G24   29.88S
WICHITA        MOSUNNY   82  54  37 CALM      29.93S
TOPEKA         PTSUNNY   76  58  53 W8        29.91R
OLATHE         PTSUNNY   73  57  57 SW8       29.93R

......TENNESSEE......

CITY           SKY/WX    TMP DP  RH WIND       PRES   REMARKS
MEMPHIS        CLOUDY    84  70  62 SW6       30.01S
NASHVILLE      PTSUNNY   80  65  59 SE7       30.08F

......ARKANSAS.......

CITY           SKY/WX    TMP DP  RH WIND       PRES   REMARKS
FAYETTEVILLE   MOSUNNY   80  67  64 SW8       29.98R
FT SMITH       SUNNY     87  65  47 SE7       29.93F
LITTLE ROCK    MOSUNNY   84  66  54 S6        29.99F

......OKLAHOMA.......

CITY           SKY/WX    TMP DP  RH WIND       PRES   REMARKS
TULSA          MOSUNNY   82  64  54 VRB5      29.92F
PONCA CITY     SUNNY     84  56  38 CALM      29.93S
MCALESTER      PTSUNNY   81  66  60 S7        29.96S
OKLAHOMA CITY  MOSUNNY   82  63  52 S8        29.95S

......IOWA............

CITY           SKY/WX    TMP DP  RH WIND       PRES   REMARKS
DES MOINES     MOSUNNY   73  61  65 SW16      29.79S
QUAD CITIES    LGT RAIN  71  66  84 W7        29.82R

......ILLINOIS........

CITY           SKY/WX    TMP DP  RH WIND       PRES   REMARKS
QUINCY         PTSUNNY   82  63  52 SW17G26   29.85F
CHICAGO        MOSUNNY   80  66  62 S15G26    29.88F



USA.gov is the U.S. government's official web portal to all federal, state and local government web resources and services.